owner,sensor,date,latitude,longitude,air_temperature,qcFlag 
WAVCIS,ioos:station:WAVCIS:CSI15:1,2010-10-01T00:00:00Z,28.8332,-90.8320,31.15,11111222 
WAVCIS,ioos:station:WAVCIS:CSI15:1,2010-10-01T01:00:00Z,28.8332,-90.8320,30.8,11111222 
WAVCIS,ioos:station:WAVCIS:CSI15:1,2010-10-01T02:00:00Z,28.8332,-90.8320,30.9,11111222 
WAVCIS,ioos:station:WAVCIS:CSI15:1,2010-10-01T03:00:00Z,28.8332,-90.8320,31.22,11111222 
WAVCIS,ioos:station:WAVCIS:CSI15:1,2010-10-01T04:00:00Z,28.8332,-90.8320,30.98,11111222 
WAVCIS,ioos:station:WAVCIS:CSI15:1,2010-10-01T05:00:00Z,28.8332,-90.8320,30.61,11111222 
WAVCIS,ioos:station:WAVCIS:CSI15:1,2010-10-01T06:00:00Z,28.8332,-90.8320,30.53,11111222 
WAVCIS,ioos:station:WAVCIS:CSI15:1,2010-10-01T07:00:00Z,28.8332,-90.8320,30.75,11111222 
WAVCIS,ioos:station:WAVCIS:CSI15:1,2010-10-01T08:00:00Z,28.8332,-90.8320,30.25,11111222 
WAVCIS,ioos:station:WAVCIS:CSI15:1,2010-10-01T09:00:00Z,28.8332,-90.8320,29.89,11111222 
WAVCIS,ioos:station:WAVCIS:CSI15:1,2010-10-01T10:00:00Z,28.8332,-90.8320,29.35,11111222 
WAVCIS,ioos:station:WAVCIS:CSI15:1,2010-10-01T11:00:00Z,28.8332,-90.8320,28.92,11111222 
WAVCIS,ioos:station:WAVCIS:CSI15:1,2010-10-01T12:00:00Z,28.8332,-90.8320,28.94,11111222 
WAVCIS,ioos:station:WAVCIS:CSI15:1,2010-10-01T13:00:00Z,28.8332,-90.8320,28.41,11111222 
WAVCIS,ioos:station:WAVCIS:CSI15:1,2010-10-01T14:00:00Z,28.8332,-90.8320,28.24,11111222 
WAVCIS,ioos:station:WAVCIS:CSI15:1,2010-10-01T15:00:00Z,28.8332,-90.8320,28.16,11111222 
WAVCIS,ioos:station:WAVCIS:CSI15:1,2010-10-01T16:00:00Z,28.8332,-90.8320,28.49,11111222 
WAVCIS,ioos:station:WAVCIS:CSI15:1,2010-10-01T17:00:00Z,28.8332,-90.8320,28.67,11111222 
WAVCIS,ioos:station:WAVCIS:CSI15:1,2010-10-01T18:00:00Z,28.8332,-90.8320,29.22,11111222 
WAVCIS,ioos:station:WAVCIS:CSI15:1,2010-10-01T19:00:00Z,28.8332,-90.8320,29.75,11111222 
WAVCIS,ioos:station:WAVCIS:CSI15:1,2010-10-01T20:00:00Z,28.8332,-90.8320,34.44,11111222 
WAVCIS,ioos:station:WAVCIS:CSI15:1,2010-10-01T21:00:00Z,28.8332,-90.8320,32.55,11111222 
WAVCIS,ioos:station:WAVCIS:CSI15:1,2010-10-01T22:00:00Z,28.8332,-90.8320,31.88,11111222 
WAVCIS,ioos:station:WAVCIS:CSI15:1,2010-10-01T23:00:00Z,28.8332,-90.8320,32.1,11111222 
WAVCIS,ioos:station:WAVCIS:CSI15:1,2010-10-02T00:00:00Z,28.8332,-90.8320,31.94,11111222 
WAVCIS,ioos:station:WAVCIS:CSI15:1,2010-10-02T01:00:00Z,28.8332,-90.8320,31.72,11111222 
WAVCIS,ioos:station:WAVCIS:CSI15:1,2010-10-02T02:00:00Z,28.8332,-90.8320,30.44,11111222 
WAVCIS,ioos:station:WAVCIS:CSI15:1,2010-10-02T03:00:00Z,28.8332,-90.8320,30.11,11111222 
WAVCIS,ioos:station:WAVCIS:CSI15:1,2010-10-02T04:00:00Z,28.8332,-90.8320,29.74,11111222 
WAVCIS,ioos:station:WAVCIS:CSI15:1,2010-10-02T05:00:00Z,28.8332,-90.8320,29.06,11111222 
WAVCIS,ioos:station:WAVCIS:CSI15:1,2010-10-02T06:00:00Z,28.8332,-90.8320,28.67,11111222 
WAVCIS,ioos:station:WAVCIS:CSI15:1,2010-10-02T07:00:00Z,28.8332,-90.8320,28.12,11111222 
WAVCIS,ioos:station:WAVCIS:CSI15:1,2010-10-02T08:00:00Z,28.8332,-90.8320,28.05,11111222 
WAVCIS,ioos:station:WAVCIS:CSI15:1,2010-10-02T09:00:00Z,28.8332,-90.8320,27.75,11111222 
WAVCIS,ioos:station:WAVCIS:CSI15:1,2010-10-02T10:00:00Z,28.8332,-90.8320,26.93,11111222 
WAVCIS,ioos:station:WAVCIS:CSI15:1,2010-10-02T11:00:00Z,28.8332,-90.8320,26.59,11111222 
WAVCIS,ioos:station:WAVCIS:CSI15:1,2010-10-02T12:00:00Z,28.8332,-90.8320,26.56,11111222 
WAVCIS,ioos:station:WAVCIS:CSI15:1,2010-10-02T13:00:00Z,28.8332,-90.8320,26.29,11111222 
WAVCIS,ioos:station:WAVCIS:CSI15:1,2010-10-02T14:00:00Z,28.8332,-90.8320,26.24,11111222 
WAVCIS,ioos:station:WAVCIS:CSI15:1,2010-10-02T15:00:00Z,28.8332,-90.8320,26.11,11111222 
WAVCIS,ioos:station:WAVCIS:CSI15:1,2010-10-02T16:00:00Z,28.8332,-90.8320,26.95,11111222 
WAVCIS,ioos:station:WAVCIS:CSI15:1,2010-10-02T17:00:00Z,28.8332,-90.8320,27.45,11111222 
WAVCIS,ioos:station:WAVCIS:CSI15:1,2010-10-02T18:00:00Z,28.8332,-90.8320,28.09,11111222 
WAVCIS,ioos:station:WAVCIS:CSI15:1,2010-10-02T19:00:00Z,28.8332,-90.8320,28.65,11111222 
WAVCIS,ioos:station:WAVCIS:CSI15:1,2010-10-02T20:00:00Z,28.8332,-90.8320,29.47,11111222 
WAVCIS,ioos:station:WAVCIS:CSI15:1,2010-10-02T21:00:00Z,28.8332,-90.8320,29.56,11111222 
WAVCIS,ioos:station:WAVCIS:CSI15:1,2010-10-02T22:00:00Z,28.8332,-90.8320,30.07,11111222 
WAVCIS,ioos:station:WAVCIS:CSI15:1,2010-10-02T23:00:00Z,28.8332,-90.8320,30.2,11111222 
WAVCIS,ioos:station:WAVCIS:CSI15:1,2010-10-03T00:00:00Z,28.8332,-90.8320,30.03,11111222 
WAVCIS,ioos:station:WAVCIS:CSI15:1,2010-10-03T01:00:00Z,28.8332,-90.8320,30.22,11111222 
WAVCIS,ioos:station:WAVCIS:CSI15:1,2010-10-03T02:00:00Z,28.8332,-90.8320,29.49,11111222 
WAVCIS,ioos:station:WAVCIS:CSI15:1,2010-10-03T03:00:00Z,28.8332,-90.8320,29.58,11111222 
WAVCIS,ioos:station:WAVCIS:CSI15:1,2010-10-03T04:00:00Z,28.8332,-90.8320,29.28,11111222 
WAVCIS,ioos:station:WAVCIS:CSI15:1,2010-10-03T05:00:00Z,28.8332,-90.8320,28.63,11111222 
WAVCIS,ioos:station:WAVCIS:CSI15:1,2010-10-03T06:00:00Z,28.8332,-90.8320,28.29,11111222 
WAVCIS,ioos:station:WAVCIS:CSI15:1,2010-10-03T07:00:00Z,28.8332,-90.8320,27.88,11111222 
WAVCIS,ioos:station:WAVCIS:CSI15:1,2010-10-03T08:00:00Z,28.8332,-90.8320,27.6,11111222 
WAVCIS,ioos:station:WAVCIS:CSI15:1,2010-10-03T09:00:00Z,28.8332,-90.8320,27.68,11111222 
WAVCIS,ioos:station:WAVCIS:CSI15:1,2010-10-03T10:00:00Z,28.8332,-90.8320,26.94,11111222 
WAVCIS,ioos:station:WAVCIS:CSI15:1,2010-10-03T11:00:00Z,28.8332,-90.8320,26.78,11111222 
WAVCIS,ioos:station:WAVCIS:CSI15:1,2010-10-03T12:00:00Z,28.8332,-90.8320,26.29,11111222 
WAVCIS,ioos:station:WAVCIS:CSI15:1,2010-10-03T13:00:00Z,28.8332,-90.8320,24.46,11111222 
WAVCIS,ioos:station:WAVCIS:CSI15:1,2010-10-03T14:00:00Z,28.8332,-90.8320,23.56,11111222 
WAVCIS,ioos:station:WAVCIS:CSI15:1,2010-10-03T15:00:00Z,28.8332,-90.8320,23.54,11111222 
WAVCIS,ioos:station:WAVCIS:CSI15:1,2010-10-03T16:00:00Z,28.8332,-90.8320,23.62,11111222 
WAVCIS,ioos:station:WAVCIS:CSI15:1,2010-10-03T17:00:00Z,28.8332,-90.8320,24.23,11111222 
WAVCIS,ioos:station:WAVCIS:CSI15:1,2010-10-03T18:00:00Z,28.8332,-90.8320,24.88,11111222 
WAVCIS,ioos:station:WAVCIS:CSI15:1,2010-10-03T19:00:00Z,28.8332,-90.8320,25.89,11111222 
WAVCIS,ioos:station:WAVCIS:CSI15:1,2010-10-03T20:00:00Z,28.8332,-90.8320,27.12,11111222 
WAVCIS,ioos:station:WAVCIS:CSI15:1,2010-10-03T21:00:00Z,28.8332,-90.8320,27.99,11111222 
WAVCIS,ioos:station:WAVCIS:CSI15:1,2010-10-03T22:00:00Z,28.8332,-90.8320,28.28,11111222 
WAVCIS,ioos:station:WAVCIS:CSI15:1,2010-10-03T23:00:00Z,28.8332,-90.8320,28.17,11111222 
WAVCIS,ioos:station:WAVCIS:CSI15:1,2010-10-04T00:00:00Z,28.8332,-90.8320,27.67,11111222 
WAVCIS,ioos:station:WAVCIS:CSI15:1,2010-10-04T01:00:00Z,28.8332,-90.8320,27.29,11111222 
WAVCIS,ioos:station:WAVCIS:CSI15:1,2010-10-04T02:00:00Z,28.8332,-90.8320,26.87,11111222 
WAVCIS,ioos:station:WAVCIS:CSI15:1,2010-10-04T03:00:00Z,28.8332,-90.8320,26.49,11111222 
WAVCIS,ioos:station:WAVCIS:CSI15:1,2010-10-04T04:00:00Z,28.8332,-90.8320,25.95,11111222 
WAVCIS,ioos:station:WAVCIS:CSI15:1,2010-10-04T05:00:00Z,28.8332,-90.8320,25.77,11111222 
WAVCIS,ioos:station:WAVCIS:CSI15:1,2010-10-04T06:00:00Z,28.8332,-90.8320,25.39,11111222 
WAVCIS,ioos:station:WAVCIS:CSI15:1,2010-10-04T07:00:00Z,28.8332,-90.8320,24.63,11111222 
WAVCIS,ioos:station:WAVCIS:CSI15:1,2010-10-04T08:00:00Z,28.8332,-90.8320,24.04,11111222 
WAVCIS,ioos:station:WAVCIS:CSI15:1,2010-10-04T09:00:00Z,28.8332,-90.8320,23.55,11111222 
WAVCIS,ioos:station:WAVCIS:CSI15:1,2010-10-04T10:00:00Z,28.8332,-90.8320,23.03,11111222 
WAVCIS,ioos:station:WAVCIS:CSI15:1,2010-10-04T11:00:00Z,28.8332,-90.8320,22.29,11111222 
WAVCIS,ioos:station:WAVCIS:CSI15:1,2010-10-04T12:00:00Z,28.8332,-90.8320,21.89,11111222 
WAVCIS,ioos:station:WAVCIS:CSI15:1,2010-10-04T13:00:00Z,28.8332,-90.8320,21.99,11111222 
WAVCIS,ioos:station:WAVCIS:CSI15:1,2010-10-04T14:00:00Z,28.8332,-90.8320,21.9,11111222 
WAVCIS,ioos:station:WAVCIS:CSI15:1,2010-10-04T15:00:00Z,28.8332,-90.8320,21.66,11111222 
WAVCIS,ioos:station:WAVCIS:CSI15:1,2010-10-04T16:00:00Z,28.8332,-90.8320,21.82,11111222 
WAVCIS,ioos:station:WAVCIS:CSI15:1,2010-10-04T17:00:00Z,28.8332,-90.8320,21.86,11111222 
WAVCIS,ioos:station:WAVCIS:CSI15:1,2010-10-04T18:00:00Z,28.8332,-90.8320,21.85,11111222 
WAVCIS,ioos:station:WAVCIS:CSI15:1,2010-10-04T19:00:00Z,28.8332,-90.8320,21.93,11111222 
WAVCIS,ioos:station:WAVCIS:CSI15:1,2010-10-04T20:00:00Z,28.8332,-90.8320,22.52,11111222 
WAVCIS,ioos:station:WAVCIS:CSI15:1,2010-10-04T21:00:00Z,28.8332,-90.8320,23.12,11111222 
WAVCIS,ioos:station:WAVCIS:CSI15:1,2010-10-04T22:00:00Z,28.8332,-90.8320,23.6,11111222 
WAVCIS,ioos:station:WAVCIS:CSI15:1,2010-10-04T23:00:00Z,28.8332,-90.8320,23.81,11111222 
WAVCIS,ioos:station:WAVCIS:CSI15:1,2010-10-05T00:00:00Z,28.8332,-90.8320,23.96,11111222 
WAVCIS,ioos:station:WAVCIS:CSI15:1,2010-10-05T01:00:00Z,28.8332,-90.8320,24.25,11111222 
WAVCIS,ioos:station:WAVCIS:CSI15:1,2010-10-05T02:00:00Z,28.8332,-90.8320,24.56,11111222 
WAVCIS,ioos:station:WAVCIS:CSI15:1,2010-10-05T03:00:00Z,28.8332,-90.8320,24.94,11111222 
WAVCIS,ioos:station:WAVCIS:CSI15:1,2010-10-05T04:00:00Z,28.8332,-90.8320,24.98,11111222 
WAVCIS,ioos:station:WAVCIS:CSI15:1,2010-10-05T05:00:00Z,28.8332,-90.8320,25.06,11111222 
WAVCIS,ioos:station:WAVCIS:CSI15:1,2010-10-05T06:00:00Z,28.8332,-90.8320,24.79,11111222 
WAVCIS,ioos:station:WAVCIS:CSI15:1,2010-10-05T07:00:00Z,28.8332,-90.8320,24.66,11111222 
WAVCIS,ioos:station:WAVCIS:CSI15:1,2010-10-05T08:00:00Z,28.8332,-90.8320,24.37,11111222 
WAVCIS,ioos:station:WAVCIS:CSI15:1,2010-10-05T09:00:00Z,28.8332,-90.8320,23.9,11111222 
WAVCIS,ioos:station:WAVCIS:CSI15:1,2010-10-05T10:00:00Z,28.8332,-90.8320,23.66,11111222 
WAVCIS,ioos:station:WAVCIS:CSI15:1,2010-10-05T11:00:00Z,28.8332,-90.8320,23.08,11111222 
WAVCIS,ioos:station:WAVCIS:CSI15:1,2010-10-05T12:00:00Z,28.8332,-90.8320,22.74,11111222 
WAVCIS,ioos:station:WAVCIS:CSI15:1,2010-10-05T13:00:00Z,28.8332,-90.8320,22.59,11111222 
WAVCIS,ioos:station:WAVCIS:CSI15:1,2010-10-05T14:00:00Z,28.8332,-90.8320,22.86,11111222 
WAVCIS,ioos:station:WAVCIS:CSI15:1,2010-10-05T15:00:00Z,28.8332,-90.8320,22.88,11111222 
WAVCIS,ioos:station:WAVCIS:CSI15:1,2010-10-05T16:00:00Z,28.8332,-90.8320,22.75,11111222 
WAVCIS,ioos:station:WAVCIS:CSI15:1,2010-10-05T17:00:00Z,28.8332,-90.8320,22.88,11111222 
WAVCIS,ioos:station:WAVCIS:CSI15:1,2010-10-05T18:00:00Z,28.8332,-90.8320,22.87,11111222 
WAVCIS,ioos:station:WAVCIS:CSI15:1,2010-10-05T19:00:00Z,28.8332,-90.8320,22.89,11111222 
WAVCIS,ioos:station:WAVCIS:CSI15:1,2010-10-05T20:00:00Z,28.8332,-90.8320,23.19,11111222 
WAVCIS,ioos:station:WAVCIS:CSI15:1,2010-10-05T21:00:00Z,28.8332,-90.8320,23.5,11111222 
WAVCIS,ioos:station:WAVCIS:CSI15:1,2010-10-05T22:00:00Z,28.8332,-90.8320,23.87,11111222 
WAVCIS,ioos:station:WAVCIS:CSI15:1,2010-10-05T23:00:00Z,28.8332,-90.8320,24.63,11111222 
WAVCIS,ioos:station:WAVCIS:CSI15:1,2010-10-06T00:00:00Z,28.8332,-90.8320,24.78,11111222 
WAVCIS,ioos:station:WAVCIS:CSI15:1,2010-10-06T01:00:00Z,28.8332,-90.8320,25.01,11111222 
WAVCIS,ioos:station:WAVCIS:CSI15:1,2010-10-06T02:00:00Z,28.8332,-90.8320,25.13,11111222 
WAVCIS,ioos:station:WAVCIS:CSI15:1,2010-10-06T03:00:00Z,28.8332,-90.8320,25.32,11111222 
WAVCIS,ioos:station:WAVCIS:CSI15:1,2010-10-06T04:00:00Z,28.8332,-90.8320,25.5,11111222 
WAVCIS,ioos:station:WAVCIS:CSI15:1,2010-10-06T05:00:00Z,28.8332,-90.8320,25.45,11111222 
WAVCIS,ioos:station:WAVCIS:CSI15:1,2010-10-06T06:00:00Z,28.8332,-90.8320,25.25,11111222 
WAVCIS,ioos:station:WAVCIS:CSI15:1,2010-10-06T07:00:00Z,28.8332,-90.8320,24.86,11111222 
WAVCIS,ioos:station:WAVCIS:CSI15:1,2010-10-06T08:00:00Z,28.8332,-90.8320,25.12,11111222 
WAVCIS,ioos:station:WAVCIS:CSI15:1,2010-10-06T09:00:00Z,28.8332,-90.8320,24.87,11111222 
WAVCIS,ioos:station:WAVCIS:CSI15:1,2010-10-06T10:00:00Z,28.8332,-90.8320,24.72,11111222 
WAVCIS,ioos:station:WAVCIS:CSI15:1,2010-10-06T11:00:00Z,28.8332,-90.8320,23.72,11111222 
WAVCIS,ioos:station:WAVCIS:CSI15:1,2010-10-06T12:00:00Z,28.8332,-90.8320,23.27,11111222 
WAVCIS,ioos:station:WAVCIS:CSI15:1,2010-10-06T13:00:00Z,28.8332,-90.8320,23.45,11111222 
WAVCIS,ioos:station:WAVCIS:CSI15:1,2010-10-06T14:00:00Z,28.8332,-90.8320,23.59,11111222 
WAVCIS,ioos:station:WAVCIS:CSI15:1,2010-10-06T15:00:00Z,28.8332,-90.8320,23.76,11111222 
WAVCIS,ioos:station:WAVCIS:CSI15:1,2010-10-06T16:00:00Z,28.8332,-90.8320,24.15,11111222 
WAVCIS,ioos:station:WAVCIS:CSI15:1,2010-10-06T17:00:00Z,28.8332,-90.8320,24.54,11111222 
WAVCIS,ioos:station:WAVCIS:CSI15:1,2010-10-06T18:00:00Z,28.8332,-90.8320,24.74,11111222 
WAVCIS,ioos:station:WAVCIS:CSI15:1,2010-10-06T19:00:00Z,28.8332,-90.8320,25.04,11111222 
WAVCIS,ioos:station:WAVCIS:CSI15:1,2010-10-06T20:00:00Z,28.8332,-90.8320,25.42,11111222 
WAVCIS,ioos:station:WAVCIS:CSI15:1,2010-10-06T21:00:00Z,28.8332,-90.8320,25.76,11111222 
WAVCIS,ioos:station:WAVCIS:CSI15:1,2010-10-06T22:00:00Z,28.8332,-90.8320,26.06,11111222 
WAVCIS,ioos:station:WAVCIS:CSI15:1,2010-10-06T23:00:00Z,28.8332,-90.8320,26.39,11111222 
WAVCIS,ioos:station:WAVCIS:CSI15:1,2010-10-07T00:00:00Z,28.8332,-90.8320,26.22,11111222 
WAVCIS,ioos:station:WAVCIS:CSI15:1,2010-10-07T01:00:00Z,28.8332,-90.8320,26.42,11111222 
WAVCIS,ioos:station:WAVCIS:CSI15:1,2010-10-07T02:00:00Z,28.8332,-90.8320,26.68,11111222 
WAVCIS,ioos:station:WAVCIS:CSI15:1,2010-10-07T03:00:00Z,28.8332,-90.8320,27.94,11111222 
WAVCIS,ioos:station:WAVCIS:CSI15:1,2010-10-07T04:00:00Z,28.8332,-90.8320,26.45,11111222 
WAVCIS,ioos:station:WAVCIS:CSI15:1,2010-10-07T05:00:00Z,28.8332,-90.8320,26.26,11111222 
WAVCIS,ioos:station:WAVCIS:CSI15:1,2010-10-07T06:00:00Z,28.8332,-90.8320,26.55,11111222 
WAVCIS,ioos:station:WAVCIS:CSI15:1,2010-10-07T07:00:00Z,28.8332,-90.8320,26.99,11111222 
WAVCIS,ioos:station:WAVCIS:CSI15:1,2010-10-07T08:00:00Z,28.8332,-90.8320,26.48,11111222 
WAVCIS,ioos:station:WAVCIS:CSI15:1,2010-10-07T09:00:00Z,28.8332,-90.8320,25.79,11111222 
WAVCIS,ioos:station:WAVCIS:CSI15:1,2010-10-07T10:00:00Z,28.8332,-90.8320,25.0,11111222 
WAVCIS,ioos:station:WAVCIS:CSI15:1,2010-10-07T11:00:00Z,28.8332,-90.8320,24.92,11111222 
WAVCIS,ioos:station:WAVCIS:CSI15:1,2010-10-07T12:00:00Z,28.8332,-90.8320,26.29,11111222 
WAVCIS,ioos:station:WAVCIS:CSI15:1,2010-10-07T13:00:00Z,28.8332,-90.8320,26.02,11111222 
WAVCIS,ioos:station:WAVCIS:CSI15:1,2010-10-07T14:00:00Z,28.8332,-90.8320,25.69,11111222 
WAVCIS,ioos:station:WAVCIS:CSI15:1,2010-10-07T15:00:00Z,28.8332,-90.8320,25.69,11111222 
WAVCIS,ioos:station:WAVCIS:CSI15:1,2010-10-07T16:00:00Z,28.8332,-90.8320,25.35,11111222 
WAVCIS,ioos:station:WAVCIS:CSI15:1,2010-10-07T17:00:00Z,28.8332,-90.8320,25.31,11111222 
WAVCIS,ioos:station:WAVCIS:CSI15:1,2010-10-07T18:00:00Z,28.8332,-90.8320,25.8,11111222 
WAVCIS,ioos:station:WAVCIS:CSI15:1,2010-10-07T19:00:00Z,28.8332,-90.8320,26.22,11111222 
WAVCIS,ioos:station:WAVCIS:CSI15:1,2010-10-07T20:00:00Z,28.8332,-90.8320,26.79,11111222 
WAVCIS,ioos:station:WAVCIS:CSI15:1,2010-10-07T21:00:00Z,28.8332,-90.8320,27.37,11111222 
WAVCIS,ioos:station:WAVCIS:CSI15:1,2010-10-07T22:00:00Z,28.8332,-90.8320,30.18,11111222 
WAVCIS,ioos:station:WAVCIS:CSI15:1,2010-10-07T23:00:00Z,28.8332,-90.8320,31.87,11111222 
WAVCIS,ioos:station:WAVCIS:CSI15:1,2010-10-08T00:00:00Z,28.8332,-90.8320,27.0,11111222 
WAVCIS,ioos:station:WAVCIS:CSI15:1,2010-10-08T01:00:00Z,28.8332,-90.8320,27.65,11111222 
WAVCIS,ioos:station:WAVCIS:CSI15:1,2010-10-08T02:00:00Z,28.8332,-90.8320,28.31,11111222 
WAVCIS,ioos:station:WAVCIS:CSI15:1,2010-10-08T03:00:00Z,28.8332,-90.8320,27.29,11111222 
WAVCIS,ioos:station:WAVCIS:CSI15:1,2010-10-08T04:00:00Z,28.8332,-90.8320,27.06,11111222 
WAVCIS,ioos:station:WAVCIS:CSI15:1,2010-10-08T05:00:00Z,28.8332,-90.8320,29.14,11111222 
WAVCIS,ioos:station:WAVCIS:CSI15:1,2010-10-08T06:00:00Z,28.8332,-90.8320,27.51,11111222 
WAVCIS,ioos:station:WAVCIS:CSI15:1,2010-10-08T07:00:00Z,28.8332,-90.8320,28.88,11111222 
WAVCIS,ioos:station:WAVCIS:CSI15:1,2010-10-08T08:00:00Z,28.8332,-90.8320,28.26,11111222 
WAVCIS,ioos:station:WAVCIS:CSI15:1,2010-10-08T09:00:00Z,28.8332,-90.8320,26.71,11111222 
WAVCIS,ioos:station:WAVCIS:CSI15:1,2010-10-08T10:00:00Z,28.8332,-90.8320,26.45,11111222 
WAVCIS,ioos:station:WAVCIS:CSI15:1,2010-10-08T11:00:00Z,28.8332,-90.8320,26.17,11111222 
WAVCIS,ioos:station:WAVCIS:CSI15:1,2010-10-08T12:00:00Z,28.8332,-90.8320,25.9,11111222 
WAVCIS,ioos:station:WAVCIS:CSI15:1,2010-10-08T13:00:00Z,28.8332,-90.8320,25.97,11111222 
WAVCIS,ioos:station:WAVCIS:CSI15:1,2010-10-08T14:00:00Z,28.8332,-90.8320,25.79,11111222 
WAVCIS,ioos:station:WAVCIS:CSI15:1,2010-10-08T15:00:00Z,28.8332,-90.8320,25.53,11111222 
WAVCIS,ioos:station:WAVCIS:CSI15:1,2010-10-08T16:00:00Z,28.8332,-90.8320,25.83,11111222 
WAVCIS,ioos:station:WAVCIS:CSI15:1,2010-10-08T17:00:00Z,28.8332,-90.8320,27.88,11111222 
WAVCIS,ioos:station:WAVCIS:CSI15:1,2010-10-08T18:00:00Z,28.8332,-90.8320,29.94,11111222 
WAVCIS,ioos:station:WAVCIS:CSI15:1,2010-10-08T19:00:00Z,28.8332,-90.8320,30.77,11111222 
WAVCIS,ioos:station:WAVCIS:CSI15:1,2010-10-08T20:00:00Z,28.8332,-90.8320,33.94,11111222 
WAVCIS,ioos:station:WAVCIS:CSI15:1,2010-10-08T21:00:00Z,28.8332,-90.8320,32.7,11111222 
WAVCIS,ioos:station:WAVCIS:CSI15:1,2010-10-11T18:00:00Z,28.8332,-90.8320,28.97,11111222 
WAVCIS,ioos:station:WAVCIS:CSI15:1,2010-10-11T19:00:00Z,28.8332,-90.8320,28.89,11111222 
WAVCIS,ioos:station:WAVCIS:CSI15:1,2010-10-11T20:00:00Z,28.8332,-90.8320,29.04,11111222 
WAVCIS,ioos:station:WAVCIS:CSI15:1,2010-10-11T21:00:00Z,28.8332,-90.8320,28.97,11111222 
WAVCIS,ioos:station:WAVCIS:CSI15:1,2010-10-11T22:00:00Z,28.8332,-90.8320,29.0,11111222 
WAVCIS,ioos:station:WAVCIS:CSI15:1,2010-10-11T23:00:00Z,28.8332,-90.8320,28.99,11111222 
WAVCIS,ioos:station:WAVCIS:CSI15:1,2010-10-12T00:00:00Z,28.8332,-90.8320,28.78,11111222 
WAVCIS,ioos:station:WAVCIS:CSI15:1,2010-10-12T01:00:00Z,28.8332,-90.8320,28.87,11111222 
WAVCIS,ioos:station:WAVCIS:CSI15:1,2010-10-12T02:00:00Z,28.8332,-90.8320,28.85,11111222 
WAVCIS,ioos:station:WAVCIS:CSI15:1,2010-10-12T03:00:00Z,28.8332,-90.8320,28.8,11111222 
WAVCIS,ioos:station:WAVCIS:CSI15:1,2010-10-12T04:00:00Z,28.8332,-90.8320,28.75,11111222 
WAVCIS,ioos:station:WAVCIS:CSI15:1,2010-10-12T05:00:00Z,28.8332,-90.8320,28.68,11111222 
WAVCIS,ioos:station:WAVCIS:CSI15:1,2010-10-12T06:00:00Z,28.8332,-90.8320,28.6,11111222 
WAVCIS,ioos:station:WAVCIS:CSI15:1,2010-10-12T07:00:00Z,28.8332,-90.8320,28.56,11111222 
WAVCIS,ioos:station:WAVCIS:CSI15:1,2010-10-12T08:00:00Z,28.8332,-90.8320,28.5,11111222 
WAVCIS,ioos:station:WAVCIS:CSI15:1,2010-10-12T09:00:00Z,28.8332,-90.8320,28.3,11111222 
WAVCIS,ioos:station:WAVCIS:CSI15:1,2010-10-12T10:00:00Z,28.8332,-90.8320,28.3,11111222 
WAVCIS,ioos:station:WAVCIS:CSI15:1,2010-10-12T11:00:00Z,28.8332,-90.8320,28.13,11111222 
WAVCIS,ioos:station:WAVCIS:CSI15:1,2010-10-12T12:00:00Z,28.8332,-90.8320,23.43,11111222 
WAVCIS,ioos:station:WAVCIS:CSI15:1,2010-10-12T13:00:00Z,28.8332,-90.8320,25.33,11111222 
WAVCIS,ioos:station:WAVCIS:CSI15:1,2010-10-12T14:00:00Z,28.8332,-90.8320,26.52,11111222 
WAVCIS,ioos:station:WAVCIS:CSI15:1,2010-10-12T15:00:00Z,28.8332,-90.8320,28.91,11111222 
WAVCIS,ioos:station:WAVCIS:CSI15:1,2010-10-12T16:00:00Z,28.8332,-90.8320,31.15,11111222 
WAVCIS,ioos:station:WAVCIS:CSI15:1,2010-10-12T17:00:00Z,28.8332,-90.8320,28.54,11111222 
WAVCIS,ioos:station:WAVCIS:CSI15:1,2010-10-12T18:00:00Z,28.8332,-90.8320,27.9,11111222 
WAVCIS,ioos:station:WAVCIS:CSI15:1,2010-10-12T19:00:00Z,28.8332,-90.8320,28.02,11111222 
WAVCIS,ioos:station:WAVCIS:CSI15:1,2010-10-12T20:00:00Z,28.8332,-90.8320,28.19,11111222 
WAVCIS,ioos:station:WAVCIS:CSI15:1,2010-10-12T21:00:00Z,28.8332,-90.8320,28.74,11111222 
WAVCIS,ioos:station:WAVCIS:CSI15:1,2010-10-12T22:00:00Z,28.8332,-90.8320,28.81,11111222 
WAVCIS,ioos:station:WAVCIS:CSI15:1,2010-10-12T23:00:00Z,28.8332,-90.8320,29.17,11111222 
WAVCIS,ioos:station:WAVCIS:CSI15:1,2010-10-13T00:00:00Z,28.8332,-90.8320,28.77,11111222 
WAVCIS,ioos:station:WAVCIS:CSI15:1,2010-10-13T01:00:00Z,28.8332,-90.8320,28.58,11111222 
WAVCIS,ioos:station:WAVCIS:CSI15:1,2010-10-13T02:00:00Z,28.8332,-90.8320,28.61,11111222 
WAVCIS,ioos:station:WAVCIS:CSI15:1,2010-10-13T03:00:00Z,28.8332,-90.8320,28.58,11111222 
WAVCIS,ioos:station:WAVCIS:CSI15:1,2010-10-13T04:00:00Z,28.8332,-90.8320,28.55,11111222 
WAVCIS,ioos:station:WAVCIS:CSI15:1,2010-10-13T05:00:00Z,28.8332,-90.8320,28.35,11111222 
WAVCIS,ioos:station:WAVCIS:CSI15:1,2010-10-13T06:00:00Z,28.8332,-90.8320,28.24,11111222 
WAVCIS,ioos:station:WAVCIS:CSI15:1,2010-10-13T07:00:00Z,28.8332,-90.8320,28.2,11111222 
WAVCIS,ioos:station:WAVCIS:CSI15:1,2010-10-13T08:00:00Z,28.8332,-90.8320,28.23,11111222 
WAVCIS,ioos:station:WAVCIS:CSI15:1,2010-10-13T09:00:00Z,28.8332,-90.8320,28.0,11111222 
WAVCIS,ioos:station:WAVCIS:CSI15:1,2010-10-13T10:00:00Z,28.8332,-90.8320,27.53,11111222 
WAVCIS,ioos:station:WAVCIS:CSI15:1,2010-10-13T11:00:00Z,28.8332,-90.8320,26.87,11111222 
WAVCIS,ioos:station:WAVCIS:CSI15:1,2010-10-13T12:00:00Z,28.8332,-90.8320,26.43,11111222 
WAVCIS,ioos:station:WAVCIS:CSI15:1,2010-10-13T13:00:00Z,28.8332,-90.8320,26.81,11111222 
WAVCIS,ioos:station:WAVCIS:CSI15:1,2010-10-13T14:00:00Z,28.8332,-90.8320,26.57,11111222 
WAVCIS,ioos:station:WAVCIS:CSI15:1,2010-10-13T15:00:00Z,28.8332,-90.8320,26.77,11111222 
WAVCIS,ioos:station:WAVCIS:CSI15:1,2010-10-13T16:00:00Z,28.8332,-90.8320,27.29,11111222 
WAVCIS,ioos:station:WAVCIS:CSI15:1,2010-10-13T17:00:00Z,28.8332,-90.8320,27.26,11111222 
WAVCIS,ioos:station:WAVCIS:CSI15:1,2010-10-13T18:00:00Z,28.8332,-90.8320,27.57,11111222 
WAVCIS,ioos:station:WAVCIS:CSI15:1,2010-10-13T19:00:00Z,28.8332,-90.8320,27.06,11111222 
WAVCIS,ioos:station:WAVCIS:CSI15:1,2010-10-13T20:00:00Z,28.8332,-90.8320,27.06,11111222 
WAVCIS,ioos:station:WAVCIS:CSI15:1,2010-10-13T21:00:00Z,28.8332,-90.8320,27.39,11111222 
WAVCIS,ioos:station:WAVCIS:CSI15:1,2010-10-13T22:00:00Z,28.8332,-90.8320,27.57,11111222 
WAVCIS,ioos:station:WAVCIS:CSI15:1,2010-10-13T23:00:00Z,28.8332,-90.8320,27.82,11111222 
WAVCIS,ioos:station:WAVCIS:CSI15:1,2010-10-14T00:00:00Z,28.8332,-90.8320,27.86,11111222 
WAVCIS,ioos:station:WAVCIS:CSI15:1,2010-10-14T01:00:00Z,28.8332,-90.8320,28.13,11111222 
WAVCIS,ioos:station:WAVCIS:CSI15:1,2010-10-14T02:00:00Z,28.8332,-90.8320,28.03,11111222 
WAVCIS,ioos:station:WAVCIS:CSI15:1,2010-10-14T03:00:00Z,28.8332,-90.8320,27.95,11111222 
WAVCIS,ioos:station:WAVCIS:CSI15:1,2010-10-14T04:00:00Z,28.8332,-90.8320,28.25,11111222 
WAVCIS,ioos:station:WAVCIS:CSI15:1,2010-10-14T05:00:00Z,28.8332,-90.8320,28.45,11111222 
WAVCIS,ioos:station:WAVCIS:CSI15:1,2010-10-14T06:00:00Z,28.8332,-90.8320,28.36,11111222 
WAVCIS,ioos:station:WAVCIS:CSI15:1,2010-10-14T07:00:00Z,28.8332,-90.8320,28.38,11111222 
WAVCIS,ioos:station:WAVCIS:CSI15:1,2010-10-14T08:00:00Z,28.8332,-90.8320,28.01,11111222 
WAVCIS,ioos:station:WAVCIS:CSI15:1,2010-10-14T09:00:00Z,28.8332,-90.8320,27.91,11111222 
WAVCIS,ioos:station:WAVCIS:CSI15:1,2010-10-14T10:00:00Z,28.8332,-90.8320,27.67,11111222 
WAVCIS,ioos:station:WAVCIS:CSI15:1,2010-10-14T11:00:00Z,28.8332,-90.8320,27.33,11111222 
WAVCIS,ioos:station:WAVCIS:CSI15:1,2010-10-14T12:00:00Z,28.8332,-90.8320,26.91,11111222 
WAVCIS,ioos:station:WAVCIS:CSI15:1,2010-10-14T13:00:00Z,28.8332,-90.8320,26.7,11111222 
WAVCIS,ioos:station:WAVCIS:CSI15:1,2010-10-14T14:00:00Z,28.8332,-90.8320,25.85,11111222 
WAVCIS,ioos:station:WAVCIS:CSI15:1,2010-10-14T15:00:00Z,28.8332,-90.8320,25.29,11111222 
WAVCIS,ioos:station:WAVCIS:CSI15:1,2010-10-14T16:00:00Z,28.8332,-90.8320,25.53,11111222 
WAVCIS,ioos:station:WAVCIS:CSI15:1,2010-10-14T17:00:00Z,28.8332,-90.8320,25.9,11111222 
WAVCIS,ioos:station:WAVCIS:CSI15:1,2010-10-14T18:00:00Z,28.8332,-90.8320,26.78,11111222 
WAVCIS,ioos:station:WAVCIS:CSI15:1,2010-10-14T19:00:00Z,28.8332,-90.8320,27.4,11111222 
WAVCIS,ioos:station:WAVCIS:CSI15:1,2010-10-14T20:00:00Z,28.8332,-90.8320,28.47,11111222 
WAVCIS,ioos:station:WAVCIS:CSI15:1,2010-10-14T21:00:00Z,28.8332,-90.8320,31.55,11111222 
WAVCIS,ioos:station:WAVCIS:CSI15:1,2010-10-14T22:00:00Z,28.8332,-90.8320,29.4,11111222 
WAVCIS,ioos:station:WAVCIS:CSI15:1,2010-10-14T23:00:00Z,28.8332,-90.8320,28.09,11111222 
WAVCIS,ioos:station:WAVCIS:CSI15:1,2010-10-15T00:00:00Z,28.8332,-90.8320,29.12,11111222 